Time,TemperatureF,DewpointF,PressureIn,WindDirection,WindDirectionDegrees,WindSpeedMPH,WindSpeedGustMPH,Humidity,HourlyPrecipIn,Conditions,Clouds,dailyrainin,SoftwareType,DateUTC
2013-09-16 00:00:00,54.8,47.0,30.00,North,-999,0.0,0.0,75,0.00,,,-99.99,WeatherLink 5.5,2013-09-16 04:00:00,
2013-09-16 00:05:00,54.7,47.3,30.00,North,-999,0.0,0.0,76,0.00,,,-99.99,WeatherLink 5.5,2013-09-16 04:05:00,
2013-09-16 00:15:00,54.8,47.4,30.00,North,-999,0.0,0.0,76,0.00,,,-99.99,WeatherLink 5.5,2013-09-16 04:15:00,
2013-09-16 00:20:00,55.0,47.2,30.00,North,-999,0.0,0.0,75,0.00,,,-99.99,WeatherLink 5.5,2013-09-16 04:20:00,
2013-09-16 00:30:00,55.0,47.6,30.00,North,-999,0.0,0.0,76,0.00,,,-99.99,WeatherLink 5.5,2013-09-16 04:30:00,
2013-09-16 00:35:00,55.1,47.7,30.01,North,-999,0.0,0.0,76,0.00,,,-99.99,WeatherLink 5.5,2013-09-16 04:35:00,
2013-09-16 00:40:00,55.1,47.7,30.01,North,-999,0.0,0.0,76,0.00,,,-99.99,WeatherLink 5.5,2013-09-16 04:40:00,
2013-09-16 00:45:00,55.1,47.7,30.01,North,-999,0.0,0.0,76,0.00,,,-99.99,WeatherLink 5.5,2013-09-16 04:45:00,
2013-09-16 00:50:00,55.3,47.5,30.00,SSE,157,0.0,1.0,75,0.00,,,-99.99,WeatherLink 5.5,2013-09-16 04:50:00,
2013-09-16 01:00:00,55.3,47.5,30.00,North,-999,0.0,0.0,75,0.00,,,-99.99,WeatherLink 5.5,2013-09-16 05:00:00,
2013-09-16 01:05:00,55.3,47.9,30.00,North,-999,0.0,0.0,76,0.00,,,-99.99,WeatherLink 5.5,2013-09-16 05:05:00,
2013-09-16 01:15:00,55.3,47.5,30.00,SSE,157,0.0,2.0,75,0.00,,,-99.99,WeatherLink 5.5,2013-09-16 05:15:00,
2013-09-16 01:20:00,55.3,47.9,30.00,North,-999,0.0,0.0,76,0.00,,,-99.99,WeatherLink 5.5,2013-09-16 05:20:00,
2013-09-16 01:25:00,55.1,47.7,30.00,North,-999,0.0,0.0,76,0.00,,,-99.99,WeatherLink 5.5,2013-09-16 05:25:00,
2013-09-16 01:30:00,55.1,47.7,30.00,North,-999,0.0,0.0,76,0.00,,,-99.99,WeatherLink 5.5,2013-09-16 05:30:00,
2013-09-16 01:35:00,55.0,47.6,30.00,North,-999,0.0,0.0,76,0.00,,,-99.99,WeatherLink 5.5,2013-09-16 05:35:00,
2013-09-16 01:45:00,55.0,47.6,30.00,North,-999,0.0,0.0,76,0.00,,,-99.99,WeatherLink 5.5,2013-09-16 05:45:00,
2013-09-16 01:50:00,55.0,47.9,29.99,North,-999,0.0,0.0,77,0.00,,,-99.99,WeatherLink 5.5,2013-09-16 05:50:00,
2013-09-16 02:00:00,55.0,47.9,29.99,North,-999,0.0,0.0,77,0.00,,,-99.99,WeatherLink 5.5,2013-09-16 06:00:00,
2013-09-16 02:05:00,54.8,47.7,29.98,North,-999,0.0,0.0,77,0.00,,,-99.99,WeatherLink 5.5,2013-09-16 06:05:00,
2013-09-16 02:10:00,54.8,47.7,29.98,SSE,157,0.0,1.0,77,0.00,,,-99.99,WeatherLink 5.5,2013-09-16 06:10:00,
2013-09-16 02:15:00,54.8,47.7,29.98,SSE,157,0.0,1.0,77,0.00,,,-99.99,WeatherLink 5.5,2013-09-16 06:15:00,
2013-09-16 02:20:00,54.8,47.7,29.98,North,-999,0.0,0.0,77,0.00,,,-99.99,WeatherLink 5.5,2013-09-16 06:20:00,
2013-09-16 02:25:00,54.8,47.7,29.98,North,-999,0.0,0.0,77,0.00,,,-99.99,WeatherLink 5.5,2013-09-16 06:25:00,
2013-09-16 02:30:00,54.8,47.7,29.98,North,-999,0.0,0.0,77,0.00,,,-99.99,WeatherLink 5.5,2013-09-16 06:30:00,
2013-09-16 02:35:00,55.0,47.9,29.97,North,-999,0.0,0.0,77,0.00,,,-99.99,WeatherLink 5.5,2013-09-16 06:35:00,
2013-09-16 02:45:00,55.0,47.9,29.97,North,-999,0.0,0.0,77,0.00,,,-99.99,WeatherLink 5.5,2013-09-16 06:45:00,
2013-09-16 02:50:00,55.0,47.9,29.98,North,-999,0.0,0.0,77,0.00,,,-99.99,WeatherLink 5.5,2013-09-16 06:50:00,
2013-09-16 03:00:00,54.8,47.7,29.98,North,-999,0.0,0.0,77,0.00,,,-99.99,WeatherLink 5.5,2013-09-16 07:00:00,
2013-09-16 03:05:00,54.8,48.1,29.98,North,-999,0.0,0.0,78,0.00,,,-99.99,WeatherLink 5.5,2013-09-16 07:05:00,
2013-09-16 03:10:00,54.8,48.1,29.98,North,-999,0.0,0.0,78,0.00,,,-99.99,WeatherLink 5.5,2013-09-16 07:10:00,
2013-09-16 03:15:00,54.8,48.1,29.98,North,-999,0.0,0.0,78,0.00,,,-99.99,WeatherLink 5.5,2013-09-16 07:15:00,
2013-09-16 03:20:00,54.8,48.1,29.98,North,-999,0.0,0.0,78,0.00,,,-99.99,WeatherLink 5.5,2013-09-16 07:20:00,
2013-09-16 03:30:00,54.8,48.1,29.98,North,-999,0.0,0.0,78,0.00,,,-99.99,WeatherLink 5.5,2013-09-16 07:30:00,
2013-09-16 03:35:00,54.8,48.1,29.97,North,-999,0.0,0.0,78,0.00,,,-99.99,WeatherLink 5.5,2013-09-16 07:35:00,
2013-09-16 03:45:00,54.8,48.1,29.97,North,-999,0.0,0.0,78,0.00,,,-99.99,WeatherLink 5.5,2013-09-16 07:45:00,
2013-09-16 03:50:00,54.8,48.1,29.98,North,-999,0.0,0.0,78,0.00,,,-99.99,WeatherLink 5.5,2013-09-16 07:50:00,
2013-09-16 04:00:00,54.8,48.1,29.98,North,-999,0.0,0.0,78,0.00,,,-99.99,WeatherLink 5.5,2013-09-16 08:00:00,
2013-09-16 04:05:00,54.8,48.1,29.97,North,-999,0.0,0.0,78,0.00,,,-99.99,WeatherLink 5.5,2013-09-16 08:05:00,
2013-09-16 04:10:00,54.8,48.1,29.97,North,-999,0.0,0.0,78,0.00,,,-99.99,WeatherLink 5.5,2013-09-16 08:10:00,
2013-09-16 04:15:00,54.8,48.1,29.97,North,-999,0.0,0.0,78,0.00,,,-99.99,WeatherLink 5.5,2013-09-16 08:15:00,
2013-09-16 04:20:00,55.0,47.9,29.97,North,-999,0.0,0.0,77,0.00,,,-99.99,WeatherLink 5.5,2013-09-16 08:20:00,
2013-09-16 04:30:00,55.0,47.9,29.97,North,-999,0.0,0.0,77,0.00,,,-99.99,WeatherLink 5.5,2013-09-16 08:30:00,
2013-09-16 04:35:00,55.0,48.3,29.96,North,-999,0.0,0.0,78,0.00,,,-99.99,WeatherLink 5.5,2013-09-16 08:35:00,
2013-09-16 04:45:00,55.0,48.3,29.96,North,-999,0.0,0.0,78,0.00,,,-99.99,WeatherLink 5.5,2013-09-16 08:45:00,
2013-09-16 04:50:00,54.8,48.1,29.96,North,-999,0.0,0.0,78,0.00,,,-99.99,WeatherLink 5.5,2013-09-16 08:50:00,
2013-09-16 04:55:00,54.8,48.1,29.96,North,-999,0.0,0.0,78,0.00,,,-99.99,WeatherLink 5.5,2013-09-16 08:55:00,
2013-09-16 05:00:00,54.8,48.1,29.96,North,-999,0.0,0.0,78,0.00,,,-99.99,WeatherLink 5.5,2013-09-16 09:00:00,
2013-09-16 05:05:00,54.8,48.1,29.97,North,-999,0.0,0.0,78,0.00,,,-99.99,WeatherLink 5.5,2013-09-16 09:05:00,
2013-09-16 05:15:00,54.7,48.0,29.97,North,-999,0.0,0.0,78,0.00,,,-99.99,WeatherLink 5.5,2013-09-16 09:15:00,
2013-09-16 05:20:00,54.5,47.8,29.97,North,-999,0.0,0.0,78,0.00,,,-99.99,WeatherLink 5.5,2013-09-16 09:20:00,
2013-09-16 05:30:00,54.5,47.8,29.97,North,-999,0.0,0.0,78,0.00,,,-99.99,WeatherLink 5.5,2013-09-16 09:30:00,
2013-09-16 05:35:00,54.2,47.5,29.98,North,-999,0.0,0.0,78,0.00,,,-99.99,WeatherLink 5.5,2013-09-16 09:35:00,
2013-09-16 05:40:00,54.2,47.8,29.98,North,-999,0.0,0.0,79,0.00,,,-99.99,WeatherLink 5.5,2013-09-16 09:40:00,
2013-09-16 05:45:00,54.2,47.8,29.98,North,-999,0.0,0.0,79,0.00,,,-99.99,WeatherLink 5.5,2013-09-16 09:45:00,
2013-09-16 05:50:00,54.2,47.8,29.98,North,-999,0.0,0.0,79,0.00,,,-99.99,WeatherLink 5.5,2013-09-16 09:50:00,
2013-09-16 06:00:00,54.2,47.8,29.98,North,-999,0.0,0.0,79,0.00,,,-99.99,WeatherLink 5.5,2013-09-16 10:00:00,
2013-09-16 06:01:00,54.2,47.8,29.98,North,-999,0.0,0.0,79,0.00,,,-99.99,WeatherLink 5.5,2013-09-16 10:01:00,
2013-09-16 06:05:00,54.2,47.8,29.98,North,-999,0.0,0.0,79,0.00,,,-99.99,WeatherLink 5.5,2013-09-16 10:05:00,
2013-09-16 06:10:00,54.1,47.7,29.98,North,-999,0.0,0.0,79,0.00,,,-99.99,WeatherLink 5.5,2013-09-16 10:10:00,
2013-09-16 06:15:00,54.1,47.7,29.98,North,-999,0.0,0.0,79,0.00,,,-99.99,WeatherLink 5.5,2013-09-16 10:15:00,
2013-09-16 06:20:00,54.1,48.1,30.00,North,-999,0.0,0.0,80,0.00,,,-99.99,WeatherLink 5.5,2013-09-16 10:20:00,
2013-09-16 06:30:00,54.1,48.1,30.00,North,-999,0.0,0.0,80,0.00,,,-99.99,WeatherLink 5.5,2013-09-16 10:30:00,
2013-09-16 06:35:00,54.1,48.1,29.98,North,-999,0.0,0.0,80,0.00,,,-99.99,WeatherLink 5.5,2013-09-16 10:35:00,
2013-09-16 06:45:00,54.1,48.1,29.98,North,-999,0.0,0.0,80,0.00,,,-99.99,WeatherLink 5.5,2013-09-16 10:45:00,
2013-09-16 06:50:00,53.9,48.2,29.99,North,-999,0.0,0.0,81,0.00,,,-99.99,WeatherLink 5.5,2013-09-16 10:50:00,
2013-09-16 06:55:00,53.9,48.2,29.99,North,-999,0.0,0.0,81,0.00,,,-99.99,WeatherLink 5.5,2013-09-16 10:55:00,
2013-09-16 07:00:00,53.9,48.2,29.99,North,-999,0.0,0.0,81,0.00,,,-99.99,WeatherLink 5.5,2013-09-16 11:00:00,
2013-09-16 07:05:00,54.1,48.4,29.99,North,-999,0.0,0.0,81,0.00,,,-99.99,WeatherLink 5.5,2013-09-16 11:05:00,
2013-09-16 07:15:00,54.1,48.4,29.99,North,-999,0.0,0.0,81,0.00,,,-99.99,WeatherLink 5.5,2013-09-16 11:15:00,
2013-09-16 07:20:00,54.2,48.5,30.00,North,-999,0.0,0.0,81,0.00,,,-99.99,WeatherLink 5.5,2013-09-16 11:20:00,
2013-09-16 07:30:00,54.2,48.5,30.00,North,-999,0.0,0.0,81,0.00,,,-99.99,WeatherLink 5.5,2013-09-16 11:30:00,
2013-09-16 07:35:00,54.4,48.7,30.01,North,-999,0.0,0.0,81,0.00,,,-99.99,WeatherLink 5.5,2013-09-16 11:35:00,
2013-09-16 07:45:00,54.5,48.8,30.01,North,-999,0.0,0.0,81,0.00,,,-99.99,WeatherLink 5.5,2013-09-16 11:45:00,
2013-09-16 07:50:00,54.7,49.0,30.01,North,-999,0.0,0.0,81,0.00,,,-99.99,WeatherLink 5.5,2013-09-16 11:50:00,
2013-09-16 07:55:00,54.7,49.0,30.01,North,-999,0.0,0.0,81,0.00,,,-99.99,WeatherLink 5.5,2013-09-16 11:55:00,
2013-09-16 08:00:00,54.7,49.0,30.01,North,-999,0.0,0.0,81,0.00,,,-99.99,WeatherLink 5.5,2013-09-16 12:00:00,
2013-09-16 08:05:00,54.7,49.0,30.01,North,-999,0.0,0.0,81,0.00,,,-99.99,WeatherLink 5.5,2013-09-16 12:05:00,
2013-09-16 08:15:00,54.8,49.1,30.01,North,-999,0.0,0.0,81,0.00,,,-99.99,WeatherLink 5.5,2013-09-16 12:15:00,
2013-09-16 08:20:00,55.1,49.4,30.01,North,-999,0.0,0.0,81,0.00,,,-99.99,WeatherLink 5.5,2013-09-16 12:20:00,
2013-09-16 08:30:00,55.3,49.6,30.01,North,-999,0.0,0.0,81,0.00,,,-99.99,WeatherLink 5.5,2013-09-16 12:30:00,
2013-09-16 08:35:00,55.4,49.7,30.02,North,-999,0.0,0.0,81,0.00,,,-99.99,WeatherLink 5.5,2013-09-16 12:35:00,
2013-09-16 08:45:00,55.6,49.9,30.02,North,-999,0.0,0.0,81,0.00,,,-99.99,WeatherLink 5.5,2013-09-16 12:45:00,
2013-09-16 08:50:00,56.0,50.6,30.02,North,-999,0.0,0.0,82,0.01,,,-99.99,WeatherLink 5.5,2013-09-16 12:50:00,
2013-09-16 08:55:00,56.2,50.8,30.02,North,-999,0.0,0.0,82,0.01,,,-99.99,WeatherLink 5.5,2013-09-16 12:55:00,
2013-09-16 09:00:00,56.2,50.8,30.02,North,-999,0.0,0.0,82,0.01,,,-99.99,WeatherLink 5.5,2013-09-16 13:00:00,
2013-09-16 09:05:00,56.2,50.4,30.01,North,-999,0.0,0.0,81,0.01,,,-99.99,WeatherLink 5.5,2013-09-16 13:05:00,
2013-09-16 09:10:00,56.2,50.4,30.01,North,-999,0.0,0.0,81,0.01,,,-99.99,WeatherLink 5.5,2013-09-16 13:10:00,
2013-09-16 09:15:00,56.2,50.4,30.01,North,-999,0.0,0.0,81,0.01,,,-99.99,WeatherLink 5.5,2013-09-16 13:15:00,
2013-09-16 09:20:00,56.2,50.8,30.02,North,-999,0.0,0.0,82,0.01,,,-99.99,WeatherLink 5.5,2013-09-16 13:20:00,
2013-09-16 09:30:00,56.3,50.9,30.02,North,-999,0.0,0.0,82,0.01,,,-99.99,WeatherLink 5.5,2013-09-16 13:30:00,
2013-09-16 09:35:00,56.2,50.8,30.01,North,-999,0.0,0.0,82,0.01,,,-99.99,WeatherLink 5.5,2013-09-16 13:35:00,
2013-09-16 09:45:00,56.2,50.8,30.01,North,-999,0.0,0.0,82,0.02,,,-99.99,WeatherLink 5.5,2013-09-16 13:45:00,
2013-09-16 09:50:00,56.2,50.8,30.01,North,-999,0.0,0.0,82,0.01,,,-99.99,WeatherLink 5.5,2013-09-16 13:50:00,
2013-09-16 10:00:00,56.2,50.8,30.01,North,-999,0.0,0.0,82,0.01,,,-99.99,WeatherLink 5.5,2013-09-16 14:00:00,
2013-09-16 10:05:00,56.2,50.4,30.00,North,-999,0.0,0.0,81,0.01,,,-99.99,WeatherLink 5.5,2013-09-16 14:05:00,
2013-09-16 10:10:00,56.3,50.5,30.00,SSE,157,0.0,2.0,81,0.01,,,-99.99,WeatherLink 5.5,2013-09-16 14:10:00,
2013-09-16 10:15:00,56.3,50.5,30.00,SSE,157,0.0,2.0,81,0.01,,,-99.99,WeatherLink 5.5,2013-09-16 14:15:00,
2013-09-16 10:20:00,56.3,50.5,30.01,North,-999,0.0,0.0,81,0.01,,,-99.99,WeatherLink 5.5,2013-09-16 14:20:00,
2013-09-16 10:30:00,56.3,50.5,30.01,North,-999,0.0,0.0,81,0.01,,,-99.99,WeatherLink 5.5,2013-09-16 14:30:00,
2013-09-16 10:35:00,56.4,50.3,30.01,North,-999,0.0,0.0,80,0.01,,,-99.99,WeatherLink 5.5,2013-09-16 14:35:00,
2013-09-16 10:45:00,56.4,50.3,30.01,SSE,157,0.0,1.0,80,0.00,,,-99.99,WeatherLink 5.5,2013-09-16 14:45:00,
2013-09-16 10:50:00,56.7,50.6,30.01,North,-999,0.0,0.0,80,0.00,,,-99.99,WeatherLink 5.5,2013-09-16 14:50:00,
2013-09-16 11:00:00,56.9,50.8,30.01,North,-999,0.0,0.0,80,0.00,,,-99.99,WeatherLink 5.5,2013-09-16 15:00:00,
2013-09-16 11:05:00,57.0,50.5,30.01,North,-999,0.0,0.0,79,0.00,,,-99.99,WeatherLink 5.5,2013-09-16 15:05:00,
2013-09-16 11:15:00,57.2,50.4,30.01,North,-999,0.0,0.0,78,0.00,,,-99.99,WeatherLink 5.5,2013-09-16 15:15:00,
2013-09-16 11:20:00,57.7,50.9,30.01,SE,135,0.0,4.0,78,0.00,,,-99.99,WeatherLink 5.5,2013-09-16 15:20:00,
2013-09-16 11:25:00,57.8,50.6,30.01,SE,135,0.0,4.0,77,0.00,,,-99.99,WeatherLink 5.5,2013-09-16 15:25:00,
2013-09-16 11:30:00,57.8,50.6,30.01,SE,135,0.0,4.0,77,0.00,,,-99.99,WeatherLink 5.5,2013-09-16 15:30:00,
2013-09-16 11:35:00,58.7,51.2,30.00,SSE,157,0.0,4.0,76,0.00,,,-99.99,WeatherLink 5.5,2013-09-16 15:35:00,
2013-09-16 11:40:00,59.0,51.4,30.00,East,90,0.0,1.0,76,0.00,,,-99.99,WeatherLink 5.5,2013-09-16 15:40:00,
2013-09-16 11:45:00,59.0,51.4,30.00,East,90,0.0,1.0,76,0.00,,,-99.99,WeatherLink 5.5,2013-09-16 15:45:00,
2013-09-16 11:50:00,59.5,50.5,30.01,East,90,1.0,6.0,72,0.00,,,-99.99,WeatherLink 5.5,2013-09-16 15:50:00,
2013-09-16 12:00:00,59.8,50.8,30.01,SE,135,1.0,6.0,72,0.00,,,-99.99,WeatherLink 5.5,2013-09-16 16:00:00,
2013-09-16 12:05:00,61.3,50.6,30.01,SE,135,1.0,6.0,68,0.00,,,-99.99,WeatherLink 5.5,2013-09-16 16:05:00,
2013-09-16 12:15:00,62.0,50.9,30.01,SE,135,2.0,7.0,67,0.00,,,-99.99,WeatherLink 5.5,2013-09-16 16:15:00,
2013-09-16 12:20:00,62.8,50.4,30.00,WSW,247,1.0,6.0,64,0.00,,,-99.99,WeatherLink 5.5,2013-09-16 16:20:00,
2013-09-16 12:30:00,63.1,50.7,30.00,North,-999,0.0,0.0,64,0.00,,,-99.99,WeatherLink 5.5,2013-09-16 16:30:00,
2013-09-16 12:35:00,63.9,51.5,30.00,SSE,157,0.0,1.0,64,0.00,,,-99.99,WeatherLink 5.5,2013-09-16 16:35:00,
2013-09-16 12:40:00,64.0,50.7,30.00,North,-999,0.0,0.0,62,0.00,,,-99.99,WeatherLink 5.5,2013-09-16 16:40:00,
2013-09-16 12:45:00,64.0,50.7,30.00,North,-999,0.0,0.0,62,0.00,,,-99.99,WeatherLink 5.5,2013-09-16 16:45:00,
2013-09-16 12:50:00,64.4,47.9,30.00,SSW,202,1.0,7.0,55,0.00,,,-99.99,WeatherLink 5.5,2013-09-16 16:50:00,
2013-09-16 13:00:00,64.2,47.7,30.00,North,-999,0.0,0.0,55,0.00,,,-99.99,WeatherLink 5.5,2013-09-16 17:00:00,
2013-09-16 13:05:00,64.0,47.5,30.00,North,-999,0.0,0.0,55,0.00,,,-99.99,WeatherLink 5.5,2013-09-16 17:05:00,
2013-09-16 13:15:00,64.0,47.5,30.00,WSW,247,0.0,2.0,55,0.00,,,-99.99,WeatherLink 5.5,2013-09-16 17:15:00,
2013-09-16 13:20:00,64.0,47.5,30.00,WSW,247,0.0,1.0,55,0.00,,,-99.99,WeatherLink 5.5,2013-09-16 17:20:00,
2013-09-16 13:25:00,63.9,47.9,30.00,WSW,247,0.0,1.0,56,0.00,,,-99.99,WeatherLink 5.5,2013-09-16 17:25:00,
2013-09-16 13:30:00,63.9,47.9,30.00,WSW,247,0.0,1.0,56,0.00,,,-99.99,WeatherLink 5.5,2013-09-16 17:30:00,
2013-09-16 13:35:00,63.7,47.7,29.99,SW,225,0.0,4.0,56,0.00,,,-99.99,WeatherLink 5.5,2013-09-16 17:35:00,
2013-09-16 13:40:00,63.9,47.4,29.99,SW,225,1.0,8.0,55,0.00,,,-99.99,WeatherLink 5.5,2013-09-16 17:40:00,
2013-09-16 13:45:00,63.9,47.4,29.99,SW,225,1.0,8.0,55,0.00,,,-99.99,WeatherLink 5.5,2013-09-16 17:45:00,
2013-09-16 13:50:00,64.2,47.2,29.99,WSW,247,1.0,9.0,54,0.00,,,-99.99,WeatherLink 5.5,2013-09-16 17:50:00,
2013-09-16 14:00:00,64.4,45.9,29.99,SW,225,1.0,7.0,51,0.00,,,-99.99,WeatherLink 5.5,2013-09-16 18:00:00,
2013-09-16 14:05:00,65.0,46.4,29.99,WSW,247,2.0,10.0,51,0.00,,,-99.99,WeatherLink 5.5,2013-09-16 18:05:00,
2013-09-16 14:15:00,65.0,46.4,29.99,SSW,202,2.0,10.0,51,0.00,,,-99.99,WeatherLink 5.5,2013-09-16 18:15:00,
2013-09-16 14:20:00,64.9,47.4,29.99,WSW,247,1.0,7.0,53,0.00,,,-99.99,WeatherLink 5.5,2013-09-16 18:20:00,
2013-09-16 14:30:00,64.5,47.0,29.99,SSW,202,1.0,7.0,53,0.00,,,-99.99,WeatherLink 5.5,2013-09-16 18:30:00,
2013-09-16 14:35:00,63.9,46.4,30.00,SW,225,1.0,8.0,53,0.00,,,-99.99,WeatherLink 5.5,2013-09-16 18:35:00,
2013-09-16 14:40:00,63.9,45.9,30.00,SW,225,1.0,10.0,52,0.00,,,-99.99,WeatherLink 5.5,2013-09-16 18:40:00,
2013-09-16 14:45:00,63.9,45.9,30.00,SW,225,1.0,10.0,52,0.00,,,-99.99,WeatherLink 5.5,2013-09-16 18:45:00,
2013-09-16 14:50:00,63.9,45.9,30.00,WSW,247,0.0,6.0,52,0.00,,,-99.99,WeatherLink 5.5,2013-09-16 18:50:00,
2013-09-16 14:55:00,63.9,45.9,30.00,SW,225,0.0,6.0,52,0.00,,,-99.99,WeatherLink 5.5,2013-09-16 18:55:00,
2013-09-16 15:00:00,63.9,45.9,30.00,SW,225,0.0,6.0,52,0.00,,,-99.99,WeatherLink 5.5,2013-09-16 19:00:00,
2013-09-16 15:05:00,64.0,46.0,30.00,SSW,202,0.0,6.0,52,0.00,,,-99.99,WeatherLink 5.5,2013-09-16 19:05:00,
2013-09-16 15:15:00,64.0,46.5,30.00,SW,225,0.0,4.0,53,0.00,,,-99.99,WeatherLink 5.5,2013-09-16 19:15:00,
2013-09-16 15:20:00,63.9,46.4,30.00,SW,225,1.0,8.0,53,0.00,,,-99.99,WeatherLink 5.5,2013-09-16 19:20:00,
2013-09-16 15:30:00,63.6,46.1,30.00,SW,225,2.0,9.0,53,0.00,,,-99.99,WeatherLink 5.5,2013-09-16 19:30:00,
2013-09-16 15:40:00,63.2,46.8,30.00,SW,225,1.0,8.0,55,0.00,,,-99.99,WeatherLink 5.5,2013-09-16 19:40:00,
2013-09-16 15:45:00,63.2,46.8,30.00,SW,225,1.0,8.0,55,0.00,,,-99.99,WeatherLink 5.5,2013-09-16 19:45:00,
2013-09-16 15:50:00,63.2,47.2,30.00,WSW,247,0.0,6.0,56,0.00,,,-99.99,WeatherLink 5.5,2013-09-16 19:50:00,
2013-09-16 16:00:00,63.4,47.4,30.00,WSW,247,1.0,7.0,56,0.00,,,-99.99,WeatherLink 5.5,2013-09-16 20:00:00,
2013-09-16 16:05:00,63.6,46.6,30.00,SW,225,2.0,9.0,54,0.00,,,-99.99,WeatherLink 5.5,2013-09-16 20:05:00,
2013-09-16 16:15:00,63.6,46.1,30.00,WSW,247,3.0,8.0,53,0.00,,,-99.99,WeatherLink 5.5,2013-09-16 20:15:00,
2013-09-16 16:20:00,63.6,46.1,30.01,WSW,247,1.0,6.0,53,0.00,,,-99.99,WeatherLink 5.5,2013-09-16 20:20:00,
2013-09-16 16:30:00,63.2,45.8,30.01,WSW,247,1.0,13.0,53,0.00,,,-99.99,WeatherLink 5.5,2013-09-16 20:30:00,
2013-09-16 16:35:00,62.6,46.2,30.01,WSW,247,1.0,6.0,55,0.00,,,-99.99,WeatherLink 5.5,2013-09-16 20:35:00,
2013-09-16 16:45:00,62.8,46.9,30.01,SE,135,0.0,1.0,56,0.00,,,-99.99,WeatherLink 5.5,2013-09-16 20:45:00,
2013-09-16 16:50:00,63.2,45.8,30.01,WNW,292,1.0,9.0,53,0.00,,,-99.99,WeatherLink 5.5,2013-09-16 20:50:00,
2013-09-16 16:55:00,63.2,45.8,30.01,WSW,247,2.0,9.0,53,0.00,,,-99.99,WeatherLink 5.5,2013-09-16 20:55:00,
2013-09-16 17:00:00,63.2,45.8,30.01,WSW,247,2.0,9.0,53,0.00,,,-99.99,WeatherLink 5.5,2013-09-16 21:00:00,
2013-09-16 17:05:00,62.6,45.2,30.01,WSW,247,0.0,1.0,53,0.00,,,-99.99,WeatherLink 5.5,2013-09-16 21:05:00,
2013-09-16 17:15:00,62.3,45.4,30.01,WSW,247,0.0,1.0,54,0.00,,,-99.99,WeatherLink 5.5,2013-09-16 21:15:00,
2013-09-16 17:20:00,62.1,44.8,30.02,SW,225,0.0,2.0,53,0.00,,,-99.99,WeatherLink 5.5,2013-09-16 21:20:00,
2013-09-16 17:25:00,62.1,44.8,30.02,WSW,247,1.0,6.0,53,0.00,,,-99.99,WeatherLink 5.5,2013-09-16 21:25:00,
2013-09-16 17:30:00,62.1,44.8,30.02,WSW,247,1.0,6.0,53,0.00,,,-99.99,WeatherLink 5.5,2013-09-16 21:30:00,
2013-09-16 17:35:00,62.1,43.2,30.03,West,270,1.0,7.0,50,0.00,,,-99.99,WeatherLink 5.5,2013-09-16 21:35:00,
2013-09-16 17:40:00,61.7,42.9,30.03,WSW,247,2.0,8.0,50,0.00,,,-99.99,WeatherLink 5.5,2013-09-16 21:40:00,
2013-09-16 17:45:00,61.7,42.9,30.03,WSW,247,2.0,8.0,50,0.00,,,-99.99,WeatherLink 5.5,2013-09-16 21:45:00,
2013-09-16 17:50:00,61.0,41.7,30.04,WSW,247,0.0,6.0,49,0.00,,,-99.99,WeatherLink 5.5,2013-09-16 21:50:00,
2013-09-16 18:00:00,60.6,39.7,30.04,SW,225,1.0,10.0,46,0.00,,,-99.99,WeatherLink 5.5,2013-09-16 22:00:00,
2013-09-16 18:05:00,59.8,39.0,30.05,WSW,247,1.0,9.0,46,0.00,,,-99.99,WeatherLink 5.5,2013-09-16 22:05:00,
2013-09-16 18:10:00,59.5,39.2,30.05,SW,225,0.0,2.0,47,0.00,,,-99.99,WeatherLink 5.5,2013-09-16 22:10:00,
2013-09-16 18:15:00,59.5,39.2,30.05,SW,225,0.0,2.0,47,0.00,,,-99.99,WeatherLink 5.5,2013-09-16 22:15:00,
2013-09-16 18:20:00,58.7,38.5,30.05,WSW,247,2.0,8.0,47,0.00,,,-99.99,WeatherLink 5.5,2013-09-16 22:20:00,
2013-09-16 18:30:00,58.6,38.4,30.05,WSW,247,0.0,4.0,47,0.00,,,-99.99,WeatherLink 5.5,2013-09-16 22:30:00,
2013-09-16 18:35:00,58.0,37.9,30.06,WSW,247,1.0,11.0,47,0.00,,,-99.99,WeatherLink 5.5,2013-09-16 22:35:00,
2013-09-16 18:40:00,57.8,37.7,30.06,WNW,292,1.0,6.0,47,0.00,,,-99.99,WeatherLink 5.5,2013-09-16 22:40:00,
2013-09-16 18:45:00,57.8,37.7,30.06,WNW,292,1.0,6.0,47,0.00,,,-99.99,WeatherLink 5.5,2013-09-16 22:45:00,
2013-09-16 18:50:00,57.2,38.2,30.07,SW,225,0.0,7.0,49,0.00,,,-99.99,WeatherLink 5.5,2013-09-16 22:50:00,
2013-09-16 18:55:00,56.9,38.4,30.07,North,-999,0.0,0.0,50,0.00,,,-99.99,WeatherLink 5.5,2013-09-16 22:55:00,
2013-09-16 19:00:00,56.9,38.4,30.07,North,-999,0.0,0.0,50,0.00,,,-99.99,WeatherLink 5.5,2013-09-16 23:00:00,
2013-09-16 19:05:00,56.2,38.3,30.08,SW,225,0.0,4.0,51,0.00,,,-99.99,WeatherLink 5.5,2013-09-16 23:05:00,
2013-09-16 19:15:00,56.0,38.6,30.08,North,-999,0.0,0.0,52,0.00,,,-99.99,WeatherLink 5.5,2013-09-16 23:15:00,
2013-09-16 19:20:00,55.4,39.0,30.08,North,-999,0.0,0.0,54,0.00,,,-99.99,WeatherLink 5.5,2013-09-16 23:20:00,
2013-09-16 19:25:00,55.1,39.2,30.08,WSW,247,0.0,4.0,55,0.00,,,-99.99,WeatherLink 5.5,2013-09-16 23:25:00,
2013-09-16 19:30:00,55.1,39.2,30.08,WSW,247,0.0,4.0,55,0.00,,,-99.99,WeatherLink 5.5,2013-09-16 23:30:00,
2013-09-16 19:35:00,54.5,38.7,30.09,WSW,247,0.0,4.0,55,0.00,,,-99.99,WeatherLink 5.5,2013-09-16 23:35:00,
2013-09-16 19:45:00,54.5,37.7,30.09,SW,225,0.0,8.0,53,0.00,,,-99.99,WeatherLink 5.5,2013-09-16 23:45:00,
2013-09-16 19:50:00,54.2,37.4,30.10,SSW,202,0.0,8.0,53,0.00,,,-99.99,WeatherLink 5.5,2013-09-16 23:50:00,
2013-09-16 20:00:00,54.1,37.3,30.10,SW,225,0.0,7.0,53,0.00,,,-99.99,WeatherLink 5.5,2013-09-17 00:00:00,
2013-09-16 20:05:00,53.6,36.9,30.11,SW,225,0.0,1.0,53,0.00,,,-99.99,WeatherLink 5.5,2013-09-17 00:05:00,
2013-09-16 20:15:00,53.5,36.8,30.11,SW,225,0.0,1.0,53,0.00,,,-99.99,WeatherLink 5.5,2013-09-17 00:15:00,
2013-09-16 20:20:00,53.0,36.3,30.13,WSW,247,0.0,4.0,53,0.00,,,-99.99,WeatherLink 5.5,2013-09-17 00:20:00,
2013-09-16 20:30:00,52.9,36.2,30.13,WNW,292,0.0,6.0,53,0.00,,,-99.99,WeatherLink 5.5,2013-09-17 00:30:00,
2013-09-16 20:35:00,52.6,35.5,30.14,WSW,247,0.0,4.0,52,0.00,,,-99.99,WeatherLink 5.5,2013-09-17 00:35:00,
2013-09-16 20:45:00,52.5,35.4,30.14,NW,315,1.0,9.0,52,0.00,,,-99.99,WeatherLink 5.5,2013-09-17 00:45:00,
2013-09-16 20:50:00,52.2,34.6,30.15,WSW,247,2.0,14.0,51,0.00,,,-99.99,WeatherLink 5.5,2013-09-17 00:50:00,
2013-09-16 21:00:00,52.0,34.4,30.15,West,270,1.0,4.0,51,0.00,,,-99.99,WeatherLink 5.5,2013-09-17 01:00:00,
2013-09-16 21:05:00,51.6,34.0,30.15,WSW,247,0.0,7.0,51,0.00,,,-99.99,WeatherLink 5.5,2013-09-17 01:05:00,
2013-09-16 21:15:00,51.4,33.4,30.15,WNW,292,1.0,7.0,50,0.00,,,-99.99,WeatherLink 5.5,2013-09-17 01:15:00,
2013-09-16 21:20:00,51.0,33.5,30.16,ESE,112,0.0,1.0,51,0.00,,,-99.99,WeatherLink 5.5,2013-09-17 01:20:00,
2013-09-16 21:30:00,50.8,32.8,30.16,SW,225,1.0,9.0,50,0.00,,,-99.99,WeatherLink 5.5,2013-09-17 01:30:00,
2013-09-16 21:35:00,50.5,33.0,30.16,North,-999,0.0,0.0,51,0.00,,,-99.99,WeatherLink 5.5,2013-09-17 01:35:00,
2013-09-16 21:45:00,50.4,33.4,30.16,SSW,202,0.0,4.0,52,0.00,,,-99.99,WeatherLink 5.5,2013-09-17 01:45:00,
2013-09-16 21:50:00,49.9,33.4,30.17,WSW,247,0.0,2.0,53,0.00,,,-99.99,WeatherLink 5.5,2013-09-17 01:50:00,
2013-09-16 22:00:00,49.8,33.3,30.17,WSW,247,0.0,1.0,53,0.00,,,-99.99,WeatherLink 5.5,2013-09-17 02:00:00,
2013-09-16 22:05:00,49.3,33.3,30.17,WSW,247,0.0,1.0,54,0.00,,,-99.99,WeatherLink 5.5,2013-09-17 02:05:00,
2013-09-16 22:15:00,49.2,32.8,30.17,WSW,247,0.0,2.0,53,0.00,,,-99.99,WeatherLink 5.5,2013-09-17 02:15:00,
2013-09-16 22:20:00,48.9,33.0,30.19,North,-999,0.0,0.0,54,0.00,,,-99.99,WeatherLink 5.5,2013-09-17 02:20:00,
2013-09-16 22:30:00,48.8,32.9,30.19,WSW,247,0.0,1.0,54,0.00,,,-99.99,WeatherLink 5.5,2013-09-17 02:30:00,
2013-09-16 22:35:00,48.5,33.1,30.19,WSW,247,0.0,4.0,55,0.00,,,-99.99,WeatherLink 5.5,2013-09-17 02:35:00,
2013-09-16 22:40:00,48.5,32.6,30.19,SW,225,0.0,1.0,54,0.00,,,-99.99,WeatherLink 5.5,2013-09-17 02:40:00,
2013-09-16 22:45:00,48.5,32.6,30.19,SW,225,0.0,1.0,54,0.00,,,-99.99,WeatherLink 5.5,2013-09-17 02:45:00,
2013-09-16 22:50:00,48.2,32.3,30.20,SW,225,0.0,1.0,54,0.00,,,-99.99,WeatherLink 5.5,2013-09-17 02:50:00,
2013-09-16 22:55:00,48.0,32.6,30.20,SW,225,0.0,8.0,55,0.00,,,-99.99,WeatherLink 5.5,2013-09-17 02:55:00,
2013-09-16 23:00:00,48.0,32.6,30.20,SW,225,0.0,8.0,55,0.00,,,-99.99,WeatherLink 5.5,2013-09-17 03:00:00,
2013-09-16 23:05:00,47.7,32.3,30.21,West,270,0.0,9.0,55,0.00,,,-99.99,WeatherLink 5.5,2013-09-17 03:05:00,
2013-09-16 23:10:00,47.6,32.2,30.21,WSW,247,0.0,1.0,55,0.00,,,-99.99,WeatherLink 5.5,2013-09-17 03:10:00,
2013-09-16 23:15:00,47.6,32.2,30.21,WSW,247,0.0,1.0,55,0.00,,,-99.99,WeatherLink 5.5,2013-09-17 03:15:00,
2013-09-16 23:20:00,47.3,32.4,30.21,SE,135,0.0,1.0,56,0.00,,,-99.99,WeatherLink 5.5,2013-09-17 03:20:00,
2013-09-16 23:30:00,47.1,32.2,30.21,North,-999,0.0,0.0,56,0.00,,,-99.99,WeatherLink 5.5,2013-09-17 03:30:00,
2013-09-16 23:35:00,46.8,31.9,30.22,SW,225,0.0,4.0,56,0.00,,,-99.99,WeatherLink 5.5,2013-09-17 03:35:00,
2013-09-16 23:45:00,46.7,32.3,30.22,North,-999,0.0,0.0,57,0.00,,,-99.99,WeatherLink 5.5,2013-09-17 03:45:00,
2013-09-16 23:50:00,46.4,32.4,30.22,North,-999,0.0,0.0,58,0.00,,,-99.99,WeatherLink 5.5,2013-09-17 03:50:00,
2013-09-16 23:55:00,46.2,32.2,30.22,North,-999,0.0,0.0,58,0.00,,,-99.99,WeatherLink 5.5,2013-09-17 03:55:00,